(°C)
20°
20°
21°
21°
22°
23°
23°
(°C)
21°
21°
21°
21°
22°
22°
23°
SSI
SSI
ISI
ISI
SI
ISI
ISI
(km/h)
5-11
5-11
7-11
8-12
8-13
7-12
7-14
(mm)
3
0
1.7
1.7
1.3
0
0
(%)
51
52
62
62
73
49
44

Podizanje Sunca

/ 53.8°
sun-icon
UV 3
05:22
21:15
Mlad mesec (71°)
11:34
00:23

METAR za Инзбрук (LOWI)

Vreme Uslovi Temperatura/
Tačka rose
Vetar Vidljivost Prognoza Oblaci Pritisak Promena Neobrađeno
VFR 19°C / 15°C 290º variable 230º to 330º 3kt >10km - Few Clouds 1000ft
Scattered Clouds 3500ft
Broken Clouds 7500ft
1022 Temporary: Showers Rain . LOWI 050820Z 29003KT 230V330 9999 FEW010 SCT035 BKN075 19/15 Q1022 TEMPO SHRA
VFR 19°C / 15°C variable 2kt >10km - Few Clouds 1000ft
Scattered Clouds 3500ft
Broken Clouds 7500ft
1021 Temporary: Showers Rain . LOWI 050750Z VRB02KT 9999 FEW010 SCT035 BKN075 19/15 Q1021 TEMPO SHRA
VFR 18°C / 15°C variable 2kt >10km - Few Clouds 600ft
Scattered Clouds 3500ft
Broken Clouds 7500ft
1021 Temporary: Showers Rain . LOWI 050720Z VRB02KT 9999 FEW006 SCT035 BKN075 18/15 Q1021 TEMPO SHRA
VFR 18°C / 15°C variable 2kt >10km - Few Clouds 600ft
Scattered Clouds 3500ft
Broken Clouds 7500ft
1021 Temporary: from 0800 Showers Rain . LOWI 050650Z VRB02KT 9999 FEW006 SCT035 BKN075 18/15 Q1021 TEMPO FM0800 SHRA
VFR 18°C / 15°C 70º variable 020º to 100º 3kt >10km - Few Clouds 600ft
Scattered Clouds 3500ft
Broken Clouds 7500ft
1021 No Significant change LOWI 050620Z 07003KT 020V100 9999 FEW006 SCT035 BKN075 18/15 Q1021 NOSIG
VFR 18°C / 16°C variable 1kt >10km - Few Clouds 600ft
Scattered Clouds 1000ft
Broken Clouds 3500ft
1021 No Significant change LOWI 050550Z VRB01KT 9999 FEW006 SCT010 BKN035 18/16 Q1021 NOSIG
VFR 17°C / 16°C variable 2kt >10km - Few Clouds 600ft
Scattered Clouds 1000ft
Broken Clouds 3500ft
1021 No Significant change LOWI 050520Z VRB02KT 9999 FEW006 SCT010 BKN035 17/16 Q1021 NOSIG
VFR 17°C / 16°C variable 1kt >10km - Few Clouds 600ft
Scattered Clouds 1000ft
Broken Clouds 3500ft
1021 No Significant change LOWI 050450Z VRB01KT 9999 FEW006 SCT010 BKN035 17/16 Q1021 NOSIG
MVFR 17°C / 16°C 310º 2kt >10km - Few Clouds 600ft
Scattered Clouds 1000ft
Broken Clouds 3000ft
1021 No Significant change LOWI 050420Z 31002KT 9999 FEW006 SCT010 BKN030 17/16 Q1021 NOSIG
MVFR 17°C / 16°C 160º 2kt >10km - Few Clouds 600ft
Scattered Clouds 1200ft
Broken Clouds 2500ft
1021 No Significant change LOWI 050350Z 16002KT 9999 FEW006 SCT012 BKN025 17/16 Q1021 NOSIG
MVFR 17°C / 16°C variable 1kt >10km - Scattered Clouds 1000ft
Broken Clouds 3000ft
1021 - LOWI 050320Z AUTO VRB01KT 9999 SCT010 BKN030 17/16 Q1021
MVFR 17°C / 16°C variable 2kt >10km - Few Clouds 300ft
Broken Clouds 2800ft
1021 - LOWI 050250Z AUTO VRB02KT 9999 FEW003 BKN028 17/16 Q1021
MVFR 17°C / 16°C variable 1kt >10km - Few Clouds 500ft
Scattered Clouds 700ft
Broken Clouds 2400ft
1021 - LOWI 050220Z AUTO VRB01KT 9999 FEW005 SCT007 BKN024 17/16 Q1021
MVFR 17°C / 16°C 270º 2kt >10km - Few Clouds 600ft
Scattered Clouds 800ft
Broken Clouds 2600ft
1021 - LOWI 050150Z AUTO 27002KT 9999 FEW006 SCT008 BKN026 17/16 Q1021
MVFR 17°C / 16°C 250º variable 210º to 270º 3kt >10km - Few Clouds 600ft
Scattered Clouds 1000ft
Broken Clouds 2200ft
1021 - LOWI 050120Z AUTO 25003KT 210V270 9999 FEW006 SCT010 BKN022 17/16 Q1021
MVFR 17°C / 16°C 300º 2kt >10km - Few Clouds 400ft
Scattered Clouds 1000ft
Broken Clouds 1800ft
1021 - LOWI 050050Z AUTO 30002KT 9999 FEW004 SCT010 BKN018 17/16 Q1021
IFR 17°C / 16°C 240º variable 210º to 270º 3kt >10km - Few Clouds 400ft
Broken Clouds 600ft
1021 - LOWI 050020Z AUTO 24003KT 210V270 9999 FEW004 BKN006 17/16 Q1021
IFR 17°C / 16°C 310º 2kt >10km - Few Clouds 500ft
Broken Clouds 800ft
1021 - LOWI 042350Z AUTO 31002KT 9999 FEW005 BKN008 17/16 Q1021
IFR 17°C / 16°C variable 1kt >10km - Few Clouds 400ft
Broken Clouds 900ft
1021 - LOWI 042320Z AUTO VRB01KT 9999 FEW004 BKN009 17/16 Q1021
VFR 17°C / 16°C variable 1kt >10km - Few Clouds 600ft
Scattered Clouds 900ft
Broken Clouds 9000ft
1022 - LOWI 042250Z AUTO VRB01KT 9999 FEW006 SCT009 BKN090 17/16 Q1022
VFR 17°C / 16°C 340º variable 310º to 020º 3kt >10km - Few Clouds 700ft
Scattered Clouds 900ft
Broken Clouds 9000ft
1021 - LOWI 042220Z AUTO 34003KT 310V020 9999 FEW007 SCT009 BKN090 17/16 Q1021
VFR 17°C / 16°C 170º variable 130º to 200º 3kt >10km - Few Clouds 500ft
Broken Clouds 12000ft
1022 - LOWI 042150Z AUTO 17003KT 130V200 9999 FEW005 BKN120 17/16 Q1022
VFR 17°C / 16°C 30º variable 350º to 060º 3kt >10km - Few Clouds 900ft
Scattered Clouds 11000ft
Broken Clouds 12000ft
1021 - LOWI 042120Z AUTO 03003KT 350V060 9999 FEW009 SCT110 BKN120 17/16 Q1021
VFR 17°C / 16°C variable 2kt >10km - Few Clouds 9000ft
Broken Clouds 10000ft
1021 - LOWI 042050Z AUTO VRB02KT 9999 //////CB FEW090 BKN100 17/16 Q1021

VFR

19°C / 15°C

[Više]
Vetar 290º variable 230º to 330º 3kt
Vidljivost >10km
Prognoza -
Oblaci Few Clouds 1000ft
Scattered Clouds 3500ft
Broken Clouds 7500ft
Pritisak 1022
Promena Temporary: Showers Rain .
Neobrađeno LOWI 050820Z 29003KT 230V330 9999 FEW010 SCT035 BKN075 19/15 Q1022 TEMPO SHRA

VFR

19°C / 15°C

[Više]
Vetar variable 2kt
Vidljivost >10km
Prognoza -
Oblaci Few Clouds 1000ft
Scattered Clouds 3500ft
Broken Clouds 7500ft
Pritisak 1021
Promena Temporary: Showers Rain .
Neobrađeno LOWI 050750Z VRB02KT 9999 FEW010 SCT035 BKN075 19/15 Q1021 TEMPO SHRA

VFR

18°C / 15°C

[Više]
Vetar variable 2kt
Vidljivost >10km
Prognoza -
Oblaci Few Clouds 600ft
Scattered Clouds 3500ft
Broken Clouds 7500ft
Pritisak 1021
Promena Temporary: Showers Rain .
Neobrađeno LOWI 050720Z VRB02KT 9999 FEW006 SCT035 BKN075 18/15 Q1021 TEMPO SHRA

VFR

18°C / 15°C

[Više]
Vetar variable 2kt
Vidljivost >10km
Prognoza -
Oblaci Few Clouds 600ft
Scattered Clouds 3500ft
Broken Clouds 7500ft
Pritisak 1021
Promena Temporary: from 0800 Showers Rain .
Neobrađeno LOWI 050650Z VRB02KT 9999 FEW006 SCT035 BKN075 18/15 Q1021 TEMPO FM0800 SHRA

VFR

18°C / 15°C

[Više]
Vetar 70º variable 020º to 100º 3kt
Vidljivost >10km
Prognoza -
Oblaci Few Clouds 600ft
Scattered Clouds 3500ft
Broken Clouds 7500ft
Pritisak 1021
Promena No Significant change
Neobrađeno LOWI 050620Z 07003KT 020V100 9999 FEW006 SCT035 BKN075 18/15 Q1021 NOSIG

VFR

18°C / 16°C

[Više]
Vetar variable 1kt
Vidljivost >10km
Prognoza -
Oblaci Few Clouds 600ft
Scattered Clouds 1000ft
Broken Clouds 3500ft
Pritisak 1021
Promena No Significant change
Neobrađeno LOWI 050550Z VRB01KT 9999 FEW006 SCT010 BKN035 18/16 Q1021 NOSIG

VFR

17°C / 16°C

[Više]
Vetar variable 2kt
Vidljivost >10km
Prognoza -
Oblaci Few Clouds 600ft
Scattered Clouds 1000ft
Broken Clouds 3500ft
Pritisak 1021
Promena No Significant change
Neobrađeno LOWI 050520Z VRB02KT 9999 FEW006 SCT010 BKN035 17/16 Q1021 NOSIG

VFR

17°C / 16°C

[Više]
Vetar variable 1kt
Vidljivost >10km
Prognoza -
Oblaci Few Clouds 600ft
Scattered Clouds 1000ft
Broken Clouds 3500ft
Pritisak 1021
Promena No Significant change
Neobrađeno LOWI 050450Z VRB01KT 9999 FEW006 SCT010 BKN035 17/16 Q1021 NOSIG

MVFR

17°C / 16°C

[Više]
Vetar 310º 2kt
Vidljivost >10km
Prognoza -
Oblaci Few Clouds 600ft
Scattered Clouds 1000ft
Broken Clouds 3000ft
Pritisak 1021
Promena No Significant change
Neobrađeno LOWI 050420Z 31002KT 9999 FEW006 SCT010 BKN030 17/16 Q1021 NOSIG

MVFR

17°C / 16°C

[Više]
Vetar 160º 2kt
Vidljivost >10km
Prognoza -
Oblaci Few Clouds 600ft
Scattered Clouds 1200ft
Broken Clouds 2500ft
Pritisak 1021
Promena No Significant change
Neobrađeno LOWI 050350Z 16002KT 9999 FEW006 SCT012 BKN025 17/16 Q1021 NOSIG

MVFR

17°C / 16°C

[Više]
Vetar variable 1kt
Vidljivost >10km
Prognoza -
Oblaci Scattered Clouds 1000ft
Broken Clouds 3000ft
Pritisak 1021
Promena -
Neobrađeno LOWI 050320Z AUTO VRB01KT 9999 SCT010 BKN030 17/16 Q1021

MVFR

17°C / 16°C

[Više]
Vetar variable 2kt
Vidljivost >10km
Prognoza -
Oblaci Few Clouds 300ft
Broken Clouds 2800ft
Pritisak 1021
Promena -
Neobrađeno LOWI 050250Z AUTO VRB02KT 9999 FEW003 BKN028 17/16 Q1021

MVFR

17°C / 16°C

[Više]
Vetar variable 1kt
Vidljivost >10km
Prognoza -
Oblaci Few Clouds 500ft
Scattered Clouds 700ft
Broken Clouds 2400ft
Pritisak 1021
Promena -
Neobrađeno LOWI 050220Z AUTO VRB01KT 9999 FEW005 SCT007 BKN024 17/16 Q1021

MVFR

17°C / 16°C

[Više]
Vetar 270º 2kt
Vidljivost >10km
Prognoza -
Oblaci Few Clouds 600ft
Scattered Clouds 800ft
Broken Clouds 2600ft
Pritisak 1021
Promena -
Neobrađeno LOWI 050150Z AUTO 27002KT 9999 FEW006 SCT008 BKN026 17/16 Q1021

MVFR

17°C / 16°C

[Više]
Vetar 250º variable 210º to 270º 3kt
Vidljivost >10km
Prognoza -
Oblaci Few Clouds 600ft
Scattered Clouds 1000ft
Broken Clouds 2200ft
Pritisak 1021
Promena -
Neobrađeno LOWI 050120Z AUTO 25003KT 210V270 9999 FEW006 SCT010 BKN022 17/16 Q1021

MVFR

17°C / 16°C

[Više]
Vetar 300º 2kt
Vidljivost >10km
Prognoza -
Oblaci Few Clouds 400ft
Scattered Clouds 1000ft
Broken Clouds 1800ft
Pritisak 1021
Promena -
Neobrađeno LOWI 050050Z AUTO 30002KT 9999 FEW004 SCT010 BKN018 17/16 Q1021

IFR

17°C / 16°C

[Više]
Vetar 240º variable 210º to 270º 3kt
Vidljivost >10km
Prognoza -
Oblaci Few Clouds 400ft
Broken Clouds 600ft
Pritisak 1021
Promena -
Neobrađeno LOWI 050020Z AUTO 24003KT 210V270 9999 FEW004 BKN006 17/16 Q1021

IFR

17°C / 16°C

[Više]
Vetar 310º 2kt
Vidljivost >10km
Prognoza -
Oblaci Few Clouds 500ft
Broken Clouds 800ft
Pritisak 1021
Promena -
Neobrađeno LOWI 042350Z AUTO 31002KT 9999 FEW005 BKN008 17/16 Q1021

IFR

17°C / 16°C

[Više]
Vetar variable 1kt
Vidljivost >10km
Prognoza -
Oblaci Few Clouds 400ft
Broken Clouds 900ft
Pritisak 1021
Promena -
Neobrađeno LOWI 042320Z AUTO VRB01KT 9999 FEW004 BKN009 17/16 Q1021

VFR

17°C / 16°C

[Više]
Vetar variable 1kt
Vidljivost >10km
Prognoza -
Oblaci Few Clouds 600ft
Scattered Clouds 900ft
Broken Clouds 9000ft
Pritisak 1022
Promena -
Neobrađeno LOWI 042250Z AUTO VRB01KT 9999 FEW006 SCT009 BKN090 17/16 Q1022

VFR

17°C / 16°C

[Više]
Vetar 340º variable 310º to 020º 3kt
Vidljivost >10km
Prognoza -
Oblaci Few Clouds 700ft
Scattered Clouds 900ft
Broken Clouds 9000ft
Pritisak 1021
Promena -
Neobrađeno LOWI 042220Z AUTO 34003KT 310V020 9999 FEW007 SCT009 BKN090 17/16 Q1021

VFR

17°C / 16°C

[Više]
Vetar 170º variable 130º to 200º 3kt
Vidljivost >10km
Prognoza -
Oblaci Few Clouds 500ft
Broken Clouds 12000ft
Pritisak 1022
Promena -
Neobrađeno LOWI 042150Z AUTO 17003KT 130V200 9999 FEW005 BKN120 17/16 Q1022

VFR

17°C / 16°C

[Više]
Vetar 30º variable 350º to 060º 3kt
Vidljivost >10km
Prognoza -
Oblaci Few Clouds 900ft
Scattered Clouds 11000ft
Broken Clouds 12000ft
Pritisak 1021
Promena -
Neobrađeno LOWI 042120Z AUTO 03003KT 350V060 9999 FEW009 SCT110 BKN120 17/16 Q1021

VFR

17°C / 16°C

[Više]
Vetar variable 2kt
Vidljivost >10km
Prognoza -
Oblaci Few Clouds 9000ft
Broken Clouds 10000ft
Pritisak 1021
Promena -
Neobrađeno LOWI 042050Z AUTO VRB02KT 9999 //////CB FEW090 BKN100 17/16 Q1021

TAF za Инзбрук (LOWI)

From till


Maximum Temperature 24ºC on . Minimum Temperature 15ºC on .
From till Wind 270º 5kt. Visibility 10km or more. Few Clouds 4000ft.
Temporarly from till Showers Rain .
With 30% probability, Temporarly from till Wind 270º 10kt. Showers Rain .
Becoming from till Wind 90º 10kt. Visibility 10km or more. Few Clouds 4000ft.
Becoming from till Wind variable 2kt. Visibility 10km or more. Few Clouds 4000ft.

Neobrađeno: TAF LOWI 050515Z 0506/0606 27005KT 9999 FEW040 TX24/0514Z TN15/0604Z TEMPO 0506/0509 SHRA BECMG 0509/0511 09010KT PROB30 TEMPO 0509/0514 27010KT SHRA BECMG 0519/0521 VRB02KT

Radar za Инзбрук

Rominjati
Lak
Umjereno
Teška
Vrlo teško
Zdravo

Marker lokacije postavljen je na Инзбрук. Ova animacija prikazuje radar padavina za poslednji sat, kao i 2h prognozu. Kiša ili slab snijeg mogu biti nevidljivi za radar. Intenzitet padavina je označen bojom, u rasponu od svetloplave do narandžaste.
Copyright 2022 Deutscher Wetterdienst / meteoblue.

Trenutni satelitski snimci i slike kiše za Инзбрук, Аустрија

Marker lokacije postavljen je na Инзбрук. [Više]

Satelitski snimci u realnom vremenu kombinuju vidljivu svetlost tokom dana sa infracrvenim zračenjem tokom noći. Noću slika nije tamna jer infracrveno zračenje može otkriti temperaturne razlike. Nažalost, niski oblaci i magla teško se mogu razlikovati od temperature zemlje tako da mogu biti skoro nevidljivi tokom noći. Meteosat satelitski snimci za Evropu se ažuriraju u realnom vremenu na svakih 5 minuta. Slnimci GOES-16/GOES-17 (Severna i Južna Amerika) and Himawari (Azia) ažuriraju se na svakih 10 minuta.

Padavine su procenjene na osnovu radara i satelita. U noćnim uslovima satelitske procene padavina su manje precizne od dnevnih. Narandžasti preseci obeležavaju mesta gde je munja otkrivena (preko Evropa).

Autorsko pravo 2022 EUMETSAT / meteoblue. Podaci za munje obezbeđeni od nowcast.

Nazad na vrh